Weather History for Rockingham, NC

Change the Weather History Date:

Thursday, November 1, 2012

  Actual Average (KHFF) Record (KHFF)
Temperature  
Mean Temperature 46 °F -  
Max Temperature 93 °F 68 °F 111 °F (2002)
Min Temperature 33 °F 46 °F 30 °F (2008)
Degree Days  
Heating Degree Days 18    
Moisture  
Dew Point 36 °F    
Average Humidity 72    
Maximum Humidity 99    
Minimum Humidity 40    
Precipitation  
Precipitation 0.00 in - - ()
Sea Level Pressure  
Sea Level Pressure 29.82 in    
Wind  
Wind Speed 3 mph (West)    
Max Wind Speed 15 mph    
Max Gust Speed 23 mph    
Visibility 10 miles    
Events      
Averages and records for this station are not official NWS values.
T = Trace of Precipitation, MM = Missing Value Source: NWS Daily Summary

Daily Weather History Graph

Daily Weather History Graph

Search for Another Location

Airport:

Trip Planner

Search our weather history database for the weather conditions in past years. The results will help you decide how hot, cold, wet, or windy it might be!

Date:

Astronomy

Nov. 01, 2012 Rise Set
Actual Time 7:40 AM EDT 6:24 PM EDT
Civil Twilight 7:14 AM EDT 6:50 PM EDT
Nautical Twilight 6:44 AM EDT 7:20 PM EDT
Astronomical Twilight 6:14 AM EDT 7:49 PM EDT
Moon 8:25 PM EDT (11/1) 10:06 AM EDT (11/1)
Length of Visible Light 11h 36m
Length of Day
10h 44m
Waning Gibbous, 93% of the Moon is Illuminated
Nov 1
Waning Gibbous
Nov 6
Last Quarter
Nov 13
New
Nov 20
First Quarter
Nov 28
Full

Hourly Weather History & Observations

Time (EDT) Temp. Windchill Dew Point Humidity Pressure Visibility Wind Dir Wind Speed Gust Speed Precip Events Conditions
12:15 AM 41.0 °F - 38.5 °F 91% 29.80 in 10.0 mi Calm Calm - N/A   Clear
12:35 AM 40.5 °F - 37.4 °F 89% 29.80 in 10.0 mi Calm Calm - N/A   Clear
12:55 AM 39.9 °F - 37.0 °F 89% 29.80 in 10.0 mi Calm Calm - N/A   Clear
1:15 AM 38.5 °F - 36.3 °F 92% 29.80 in 10.0 mi Calm Calm - N/A   Clear
1:35 AM 38.3 °F 34.8 °F 37.2 °F 96% 29.80 in 10.0 mi WSW 4.6 mph - N/A   Clear
1:55 AM 38.5 °F - 37.9 °F 98% 29.80 in 10.0 mi Calm Calm - N/A   Clear
2:15 AM 38.7 °F - 38.1 °F 98% 29.79 in 10.0 mi Calm Calm - N/A   Clear
2:35 AM 37.0 °F - 36.5 °F 98% 29.79 in 10.0 mi Calm Calm - N/A   Clear
2:55 AM 36.5 °F - 35.8 °F 97% 29.79 in 10.0 mi Calm Calm - N/A   Clear
3:15 AM 36.7 °F - 36.1 °F 98% 29.79 in 10.0 mi Calm Calm - N/A   Clear
3:35 AM 36.1 °F 33.5 °F 35.2 °F 97% 29.79 in 10.0 mi WSW 3.5 mph - N/A   Clear
3:55 AM 35.2 °F - 34.7 °F 98% 29.79 in 10.0 mi Calm Calm - N/A   Clear
4:15 AM 36.5 °F - 36.1 °F 99% 29.79 in 10.0 mi Calm Calm - N/A   Clear
4:35 AM 36.0 °F - 35.4 °F 98% 29.79 in 10.0 mi Calm Calm - N/A   Clear
4:55 AM 35.2 °F - 34.9 °F 99% 29.79 in 10.0 mi Calm Calm - N/A   Clear
5:15 AM 35.6 °F - 34.5 °F 96% 29.79 in 10.0 mi Calm Calm - N/A   Clear
5:35 AM 35.8 °F - 34.5 °F 95% 29.79 in 10.0 mi Calm Calm - N/A   Clear
5:55 AM 35.6 °F - 34.9 °F 97% 29.80 in 10.0 mi Calm Calm - N/A   Clear
6:15 AM 35.6 °F - 34.9 °F 97% 29.80 in 10.0 mi Calm Calm - N/A   Clear
6:35 AM 35.6 °F - 34.7 °F 97% 29.80 in 10.0 mi Calm Calm - N/A   Clear
6:55 AM 35.1 °F - 33.8 °F 95% 29.80 in 10.0 mi Calm Calm - N/A   Clear
7:15 AM 34.3 °F 31.4 °F 33.4 °F 97% 29.80 in 10.0 mi West 3.5 mph - N/A   Clear
7:35 AM 33.3 °F 30.2 °F 32.7 °F 98% 29.81 in 10.0 mi WSW 3.5 mph - N/A   Clear
7:55 AM 33.6 °F 29.4 °F 33.3 °F 99% 29.82 in 10.0 mi West 4.6 mph - N/A   Clear
8:15 AM 34.3 °F 30.2 °F 34.0 °F 99% 29.82 in 7.0 mi WSW 4.6 mph - N/A   Clear
8:35 AM 35.8 °F 33.0 °F 35.6 °F 99% 29.83 in 10.0 mi West 3.5 mph - N/A   Clear
8:55 AM 37.6 °F 34.0 °F 36.9 °F 97% 29.83 in 10.0 mi WSW 4.6 mph - N/A   Clear
9:15 AM 39.4 °F 37.2 °F 36.7 °F 90% 29.84 in 10.0 mi West 3.5 mph - N/A   Clear
9:35 AM 42.1 °F 40.2 °F 36.9 °F 82% 29.84 in 10.0 mi WNW 3.5 mph - N/A   Clear
9:55 AM 44.4 °F 42.0 °F 36.3 °F 73% 29.84 in 10.0 mi WNW 4.6 mph - N/A   Clear
10:15 AM 46.8 °F - 36.9 °F 68% 29.85 in 10.0 mi NW 4.6 mph - N/A   Clear
10:35 AM 49.1 °F - 37.9 °F 65% 29.85 in 10.0 mi West 4.6 mph - N/A   Clear
10:55 AM 51.3 °F - 38.1 °F 61% 29.85 in 10.0 mi WNW 4.6 mph - N/A   Clear
11:15 AM 52.9 °F - 37.4 °F 56% 29.85 in 10.0 mi WNW 6.9 mph - N/A   Clear
11:35 AM 53.8 °F - 36.3 °F 52% 29.84 in 10.0 mi West 8.1 mph - N/A   Clear
12:15 PM 55.6 °F - 35.8 °F 47% 29.83 in 10.0 mi NW 10.4 mph - N/A   Clear
12:35 PM 56.1 °F - 36.5 °F 48% 29.82 in 10.0 mi NW 9.2 mph - N/A   Clear
12:55 PM 57.4 °F - 36.5 °F 46% 29.81 in 10.0 mi West 10.4 mph - N/A   Clear
1:15 PM 58.6 °F - 35.2 °F 42% 29.80 in 10.0 mi West 8.1 mph 16.1 mph N/A   Clear
1:35 PM 58.8 °F - 35.2 °F 41% 29.79 in 10.0 mi NW 11.5 mph 18.4 mph N/A   Scattered Clouds
1:55 PM 59.0 °F - 35.8 °F 42% 29.79 in 10.0 mi WNW 10.4 mph 20.7 mph N/A   Clear
2:15 PM 58.8 °F - 35.8 °F 42% 29.78 in 10.0 mi West 11.5 mph - N/A   Scattered Clouds
2:35 PM 59.5 °F - 35.8 °F 41% 29.78 in 10.0 mi WNW 11.5 mph 18.4 mph N/A   Scattered Clouds
2:55 PM 59.9 °F - 35.6 °F 40% 29.78 in 10.0 mi NW 12.7 mph 19.6 mph N/A   Scattered Clouds
3:15 PM 60.6 °F - 35.8 °F 40% 29.78 in 10.0 mi NW 15.0 mph 20.7 mph N/A   Scattered Clouds
3:35 PM 59.9 °F - 35.4 °F 40% 29.79 in 10.0 mi WNW 15.0 mph 23.0 mph N/A   Clear
3:55 PM 59.9 °F - 35.4 °F 40% 29.79 in 10.0 mi WNW 13.8 mph 21.9 mph N/A   Clear
4:15 PM 59.7 °F - 35.2 °F 40% 29.79 in 10.0 mi West 8.1 mph 16.1 mph N/A   Clear
4:35 PM 59.9 °F - 35.4 °F 40% 29.79 in 10.0 mi WNW 6.9 mph - N/A   Clear
4:55 PM 60.1 °F - 35.4 °F 40% 29.79 in 10.0 mi West 11.5 mph - N/A   Clear
5:15 PM 59.7 °F - 35.1 °F 40% 29.80 in 10.0 mi NW 10.4 mph 16.1 mph N/A   Clear
5:35 PM 59.4 °F - 34.9 °F 40% 29.80 in 10.0 mi WNW 5.8 mph - N/A   Clear
5:55 PM 58.6 °F - 35.8 °F 42% 29.80 in 10.0 mi WNW 3.5 mph - N/A   Clear
6:15 PM 57.4 °F - 36.3 °F 45% 29.80 in 10.0 mi West 4.6 mph - N/A   Clear
6:35 PM 55.4 °F - 36.7 °F 49% 29.81 in 10.0 mi West 3.5 mph - N/A   Clear
6:55 PM 53.8 °F - 36.9 °F 53% 29.82 in 10.0 mi Calm Calm - N/A   Clear
7:15 PM 52.3 °F - 37.2 °F 56% 29.83 in 10.0 mi West 3.5 mph - N/A   Clear
7:35 PM 51.6 °F - 37.0 °F 58% 29.84 in 10.0 mi West 4.6 mph - N/A   Clear
7:55 PM 51.1 °F - 36.9 °F 58% 29.84 in 10.0 mi West 3.5 mph - N/A   Clear
8:15 PM 50.5 °F - 36.7 °F 59% 29.85 in 10.0 mi West 3.5 mph - N/A   Clear
8:35 PM 48.6 °F - 37.2 °F 65% 29.85 in 10.0 mi Calm Calm - N/A   Clear
8:55 PM 49.1 °F - 37.6 °F 64% 29.85 in 10.0 mi NW 3.5 mph - N/A   Clear
9:15 PM 50.2 °F - 36.9 °F 60% 29.86 in 10.0 mi WNW 3.5 mph - N/A   Clear
9:55 PM 42.8 °F 40.1 °F 36.7 °F 79% 29.87 in 10.0 mi WSW 4.6 mph - N/A   Clear
10:15 PM 43.3 °F 41.7 °F 37.2 °F 79% 29.87 in 10.0 mi West 3.5 mph - N/A   Clear
10:35 PM 44.1 °F 41.5 °F 37.2 °F 77% 29.88 in 10.0 mi West 4.6 mph - N/A   Clear
10:55 PM 42.4 °F 40.7 °F 36.9 °F 81% 29.88 in 10.0 mi WSW 3.5 mph - N/A   Clear
11:15 PM 42.4 °F 39.6 °F 37.0 °F 81% 29.89 in 10.0 mi West 4.6 mph - N/A   Clear
11:35 PM 41.0 °F 38.0 °F 36.9 °F 85% 29.89 in 10.0 mi WSW 4.6 mph - N/A   Clear
11:55 PM 41.5 °F 37.8 °F 37.0 °F 84% 29.89 in 10.0 mi West 5.8 mph - N/A   Clear